weather.gov     
National Weather Service

Terminal Aerodrome Forecast
NWS Homepage
This page is being discontinued on March 12, 2014.
The same data is available at this site. Please update your bookmarks.
Thank you, and we apologize for the inconvenience.
Please send an email to SR-SRH.Webmaster@noaa.gov with any concerns.


Current Version
Previous Version:    01  02  03  04  05  06  07  08  09  10  11  12  13  14  15  16  17  18  19  20  21  22  23  24  25  26  27  28  29  30  
   31  32  
[Printable]
738
FTUS44 KSJT 181700
TAFBBD
TAF
KBBD 181739Z 1818/1918 VRB04KT P6SM BKN250
      TEMPO 1818/1819 5SM BR BKN012
     FM190300 04007KT P6SM BKN015
     FM190400 03008KT 3SM BR BKN006
     FM190700 02008KT 2SM -RA BR OVC003
     FM191300 02007KT 4SM BR OVC004=


U.S. Dept. of Commerce
NOAA National Weather Service
1325 East West Highway
Silver Spring, MD 20910
E-mail: w-nws.webmaster@noaa.gov
Page last modified: May 16, 2007
NATIONAL WEATHER SERVICE: for Safety, for Work, for Fun - FOR LIFE